Hourly Data Report for October 18, 2015

All times are specified in Local Standard Time (LST). Add 1 hour to adjust for Daylight Saving Time where and when it is observed.

IQALUIT CLIMATE
NUNAVUT

63°44'50.000" N
68°32'40.000" W
33.50 m
2402592
71321
XFB

Download Data

Hourly Data (October 2015)
Hourly Data Report for October 18, 2015
Temp Definition
°C
Dew Point Temp Definition
°C
Rel Hum Definition
%
Wind Dir Definition
10's deg

Wind Spd Definition
km/h
Visibility Definition
km
Stn Press Definition
kPa
Hmdx Definition


Wind Chill Definition


Weather Definition


TIME
00:00 -6.7 -10.1 77 35 7   100.80   -10 LegendNANA
01:00 -6.7 -10.3 76 36 7   100.83   -10 LegendNANA
02:00 -7.0 -9.9 80 31 3   100.85   -9 LegendNANA
03:00 -6.7 -10.8 73 19 5   100.85   -9 LegendNANA
04:00 -7.1 -10.3 78 14 2   100.87   -8 LegendNANA
05:00 -8.0 -10.8 80 9 4   100.86   -10 LegendNANA
06:00 -7.5 -10.0 82 36 5   100.91   -10 LegendNANA
07:00 -7.3 -9.7 83 36 5   100.93   -10 LegendNANA
08:00 -6.3 -9.7 77 7 4   100.91   -8 LegendNANA
09:00 -5.3 -10.2 68 12 3   100.90   -7 LegendNANA
10:00 -4.7 -9.6 69 12 4   100.91   -6 LegendNANA
11:00 -4.2 -9.7 66 15 5   100.91   -6 LegendNANA
12:00 -3.8 -10.0 62 27 4   100.92   -5 LegendNANA
13:00 -3.8 -10.5 60 23 3   100.92   -5 LegendNANA
14:00 -3.8 -10.1 62 19 2   100.91   -5 LegendNANA
15:00 -4.0 -9.5 65 17 5   100.89   -6 LegendNANA
16:00 -4.1 -9.1 68 18 1   100.87   -5 LegendNANA
17:00 -4.3 -8.2 74 25 7   100.86   -7 LegendNANA
18:00 -4.3 -8.6 72 23 8   100.85   -8 LegendNANA
19:00 -4.3 -8.6 72 15 2   100.83   -5 LegendNANA
20:00 -4.9 -8.3 77 0 1   100.82   -5 LegendNANA
21:00 -4.3 -8.2 75 18 4   100.78   -6 LegendNANA
22:00 -4.7 -8.1 77 21 2   100.76   -6 LegendNANA
23:00 -4.2 -7.9 76 20 3   100.73   -5 LegendNANA

Notes on Data Quality.

Legend

  • E = Estimated
  • M = Missing
  • NA = Not Available
  • ‡ = Partner data that is not subject to review by the National Climate Archives
Date modified: